Regional Weather Roundup
Issued by NWS Northern Indiana

Home | Current Version | Previous Version | Graphics & Text | Print | Product List | Glossary On
Versions: 1 2 3 4 5 6 7 8 9 10 11 12 13 14 15 16 17 18 19 20 21 22 23 24 25 26 27 28 29 30 31 32 33 34 35 36 37 38 39 40 41 42 43 44 45 46 47 48 49 50
000
ASUS43 KIWX 230600
RWRIWX

KIWX WEATHER ROUNDUP
NATIONAL WEATHER SERVICE NORTHERN INDIANA
100 AM EST THU NOV 23 2017

NOTE: "FAIR" INDICATES FEW OR NO CLOUDS BELOW 12,000 FEET WITH NO
SIGNIFICANT WEATHER AND/OR OBSTRUCTIONS TO VISIBILITY.

* THESE STATIONS ARE NOT UNDER NWS QUALITY CONTROL. THEY ALSO MAY NOT
  REPORT WEATHER SUCH AS PRECIPITATION OR FOG.

INZ001>027-230700-
NORTHERN INDIANA

CITY           SKY/WX    TMP DP  RH WIND       PRES   REMARKS
MICHIGAN CITY* CLOUDY    30  19  64 S6        30.19F WCI  24
KNOX*          CLOUDY    28  21  74 CALM      30.21S
SOUTH BEND     PTCLDY    27  20  75 SW6       30.19F WCI  20
6HR MIN TEMP:  25; 6HR MAX TEMP:  28;

GOSHEN         PTCLDY    30  20  66 SW5       30.19F WCI  25
6HR MIN TEMP:  27; 6HR MAX TEMP:  31;

MONTICELLO*    MOCLDY    28  24  85 SW3       30.22R
6HR MIN TEMP:  26; 6HR MAX TEMP:  30;

WARSAW*        CLOUDY    30  21  69 CALM      30.19F
AUBURN*        CLOUDY    32  23  69 SW6       30.21R WCI  26
FORT WAYNE     CLOUDY    30  26  85 SW5       30.22R WCI  25
6HR MIN TEMP:  28; 6HR MAX TEMP:  32;

PERU/GRISSOM   CLOUDY    27  25  94 S5        30.20S WCI  21
6HR MIN TEMP:  26; 6HR MAX TEMP:  29;


$$
INZ028>050-230700-
CENTRAL INDIANA

CITY           SKY/WX    TMP DP  RH WIND       PRES   REMARKS
LAFAYETTE      PTCLDY    27  25  92 CALM      30.23S
6HR MIN TEMP:  25; 6HR MAX TEMP:  29;

KOKOMO*        PTCLDY    28  24  85 S6        30.22S WCI  22
6HR MIN TEMP:  27; 6HR MAX TEMP:  30;

MUNCIE*        PTCLDY    31  23  72 S5        30.21F WCI  26
6HR MIN TEMP:  26; 6HR MAX TEMP:  31;

INDIANAPOLIS   MOCLDY    30  23  75 CALM      30.22F
6HR MIN TEMP:  29; 6HR MAX TEMP:  32;


$$
MIZ043>046-050>051-056>058-064>065-071>073-077>080-230700-
SOUTHWEST LOWER MICHIGAN

CITY           SKY/WX    TMP DP  RH WIND       PRES   REMARKS
BATTLE CREEK   CLOUDY    30  23  75 SW6       30.17F WCI  24
6HR MIN TEMP:  26; 6HR MAX TEMP:  30;

BENTON HARBOR  CLOUDY    32  18  56 S7        30.18S WCI  26
6HR MIN TEMP:  29; 6HR MAX TEMP:  32;

COLDWATER*     CLOUDY    30  22  72 SW7       30.17F WCI  23
6HR MIN TEMP:  26; 6HR MAX TEMP:  31;

HILLSDALE*     CLOUDY    30  21  69 SW7       30.16S WCI  23
HOLLAND        CLOUDY    32  24  72 S7        30.15F WCI  26
6HR MIN TEMP:  31; 6HR MAX TEMP:  32;

GRAND RAPIDS   CLOUDY    32  24  72 SW9       30.15F WCI  24
6HR MIN TEMP:  29; 6HR MAX TEMP:  32;

KALAMAZOO      CLOUDY    31  21  66 SW7       30.17F WCI  24
6HR MIN TEMP:  28; 6HR MAX TEMP:  31;

STURGIS*       CLOUDY    29  24  82 SW5       30.17F WCI  24
6HR MIN TEMP:  26; 6HR MAX TEMP:  29;

THREE RIVERS*  CLOUDY    31  23  71 SW5       30.18S WCI  27
6HR MIN TEMP:  29; 6HR MAX TEMP:  32;


$$
OHZ001>008-015>018-024>025-230700-
NORTHWEST OHIO

CITY           SKY/WX    TMP DP  RH WIND       PRES   REMARKS
DEFIANCE       MOCLDY    28  22  78 S5        30.21S WCI  23
6HR MIN TEMP:  25; 6HR MAX TEMP:  29;

FINDLAY        PTCLDY    26  20  77 S6        30.20F WCI  19
6HR MIN TEMP:  25; 6HR MAX TEMP:  29;

TOLEDO EXPRESS PTCLDY    29  22  75 S6        30.20F WCI  23
6HR MIN TEMP:  27; 6HR MAX TEMP:  29;

TOLEDO METCALF PTCLDY    28  21  75 S7        30.21F WCI  21
6HR MIN TEMP:  26; 6HR MAX TEMP:  29;

LIMA           CLOUDY    25  22  88 S6        30.20F WCI  18
6HR MIN TEMP:  24; 6HR MAX TEMP:  28;


$$
AND FOR LAKE MICHIGAN COASTAL AND OPEN LAKE BUOY OBSERVATIONS

STATION/POSITION TEMP    WIND        PRES    VSBY  WAVE
                 AIR SEA DIR/SP/G                  HT/PER
                 (F)     (DEG/KT/KT) (MB)    (MI)  (FT/S)
CALUMET HARBOR    32     200/ 10/ 13 1021.4F
MICHIGAN CITY     30     180/  9/ 11   N/A
BURNS HARBOR      31     200/  8/ 10 1022.7F
SAINT JOSEPH      32     170/  6/ 10 1022.4
SOUTH LAKE BUOY   35 47  260/ 16/ 19 1022.1          3/ 4

$$
&&




USA.gov is the U.S. government's official web portal to all federal, state and local government web resources and services.